Location: Ciserano
(45.5833°N, 9.6000°E)
Time: 22:26:56
(UTC+00:00)

FALCON 9 DEB - Pass Details

Date: 21 June 2021
Orbit: 364 x 377 km, 53.0° (Epoch: 26 July)

Event Time Altitude Azimuth Distance (km) Brightness Sun altitude
Rises 22:51:47 0° 289° (WNW) 2,265 7.1 -20.6°
Reaches altitude 10° 22:54:10 10° 307° (NW) 1,412 6.3 -20.7°
Maximum altitude 22:56:38 20° 358° (N) 950 5.7 -20.7°
Drops below altitude 10° 22:59:06 10° 50° (NE) 1,412 6.1 -20.8°
Sets 23:01:30 0° 67° (ENE) 2,265 7.0 -20.8°
